Hourly Weather Gaborone

Today, 19 September, Saturday

Time Temperature Precipitation Wind Pressure Humidity
00:00 +21°C° 0 mm 2 mps 678 mmHg 42%
01:00 +22°C° 0 mm 1 mps 678 mmHg 43%
02:00 +21°C° 0 mm 1 mps 678 mmHg 45%
03:00 +20°C° 0 mm 1 mps 677 mmHg 47%
04:00 +20°C° 0 mm 1 mps 677 mmHg 49%
05:00 +19°C° 0 mm 1 mps 677 mmHg 51%
06:00 +20°C° 0 mm 2 mps 678 mmHg 47%
07:00 +23°C° 0 mm 2 mps 678 mmHg 44%
08:00 +24°C° 0 mm 2 mps 679 mmHg 40%
09:00 +27°C° 0 mm 3 mps 679 mmHg 34%
10:00 +30°C° 0 mm 3 mps 680 mmHg 28%
11:00 +34°C° 0 mm 4 mps 680 mmHg 22%
12:00 +36°C° 0 mm 3 mps 680 mmHg 18%
13:00 +37°C° 0 mm 2 mps 679 mmHg 14%
14:00 +39°C° 0 mm 1 mps 678 mmHg 11%
15:00 +37°C° 0 mm 1 mps 678 mmHg 11%
16:00 +36°C° 0 mm 1 mps 678 mmHg 11%
17:00 +35°C° 0 mm 1 mps 677 mmHg 11%
18:00 +33°C° 0 mm 1 mps 677 mmHg 15%
19:00 +30°C° 0 mm 1 mps 677 mmHg 18%
20:00 +27°C° 0 mm 1 mps 677 mmHg 21%
21:00 +26°C° 0 mm 1 mps 677 mmHg 25%
22:00 +24°C° 0 mm 1 mps 677 mmHg 30%
23:00 +22°C° 0 mm 1 mps 677 mmHg 34%

Tomorrow, 20 September, Sunday

Time Temperature Precipitation Wind Pressure Humidity
00:00 +22°C° 0 mm 1 mps 676 mmHg 33%
01:00 +22°C° 0 mm 1 mps 676 mmHg 33%
02:00 +20°C° 0 mm 2 mps 675 mmHg 32%
03:00 +20°C° 0 mm 2 mps 675 mmHg 33%
04:00 +19°C° 0 mm 2 mps 675 mmHg 33%
05:00 +19°C° 0 mm 2 mps 675 mmHg 34%
06:00 +21°C° 0 mm 3 mps 676 mmHg 31%
07:00 +24°C° 0 mm 3 mps 677 mmHg 27%
08:00 +26°C° 0 mm 4 mps 678 mmHg 24%
09:00 +29°C° 0 mm 4 mps 678 mmHg 20%
10:00 +33°C° 0 mm 5 mps 679 mmHg 16%
11:00 +37°C° 0 mm 5 mps 679 mmHg 12%
12:00 +39°C° 0 mm 5 mps 678 mmHg 11%
13:00 +40°C° 0 mm 4 mps 677 mmHg 10%
14:00 +40°C° 0 mm 4 mps 677 mmHg 9%
15:00 +39°C° 0 mm 3 mps 676 mmHg 9%
16:00 +39°C° 0 mm 3 mps 676 mmHg 9%
17:00 +38°C° 0 mm 3 mps 675 mmHg 9%
18:00 +35°C° 0 mm 3 mps 675 mmHg 11%
19:00 +33°C° 0 mm 3 mps 675 mmHg 13%
20:00 +29°C° 0 mm 2 mps 675 mmHg 15%
21:00 +28°C° 0 mm 3 mps 675 mmHg 17%
22:00 +28°C° 0 mm 3 mps 675 mmHg 18%
23:00 +27°C° 0 mm 4 mps 676 mmHg 19%

Day after tomorrow, 21 September, Monday

Time Temperature Precipitation Wind Pressure Humidity
00:00 +25°C° 0 mm 3 mps 675 mmHg 22%
01:00 +24°C° 0 mm 2 mps 675 mmHg 24%
02:00 +23°C° 0 mm 1 mps 675 mmHg 27%
03:00 +22°C° 0 mm 1 mps 675 mmHg 28%
04:00 +21°C° 0 mm 1 mps 675 mmHg 30%
05:00 +18°C° 0 mm 0 mps 675 mmHg 32%
06:00 +22°C° 0 mm 1 mps 676 mmHg 29%
07:00 +24°C° 0 mm 1 mps 677 mmHg 26%
08:00 +25°C° 0 mm 1 mps 677 mmHg 22%
09:00 +28°C° 0 mm 2 mps 678 mmHg 19%
10:00 +31°C° 0 mm 3 mps 678 mmHg 15%
11:00 +35°C° 0 mm 3 mps 679 mmHg 12%
12:00 +36°C° 0 mm 3 mps 678 mmHg 11%
13:00 +38°C° 0 mm 3 mps 678 mmHg 10%
14:00 +39°C° 0 mm 3 mps 677 mmHg 9%
15:00 +39°C° 0 mm 3 mps 677 mmHg 8%
16:00 +39°C° 0 mm 3 mps 677 mmHg 8%
17:00 +38°C° 0 mm 3 mps 677 mmHg 8%
18:00 +36°C° 0 mm 2 mps 677 mmHg 10%
19:00 +32°C° 0 mm 2 mps 677 mmHg 11%
20:00 +30°C° 0 mm 2 mps 677 mmHg 13%
21:00 +29°C° 0 mm 2 mps 678 mmHg 12%
22:00 +28°C° 0 mm 3 mps 678 mmHg 11%
23:00 +26°C° 0 mm 3 mps 679 mmHg 11%

22 September, Tuesday

Time Temperature Precipitation Wind Pressure Humidity
00:00 +25°C° 0 mm 4 mps 679 mmHg 21%
01:00 +23°C° 0 mm 6 mps 679 mmHg 31%
02:00 +22°C° 0 mm 7 mps 679 mmHg 42%
03:00 +20°C° 0 mm 7 mps 679 mmHg 50%
04:00 +18°C° 0 mm 7 mps 679 mmHg 58%
05:00 +16°C° 0 mm 7 mps 679 mmHg 66%
06:00 +16°C° 0 mm 7 mps 680 mmHg 66%
07:00 +16°C° 0 mm 7 mps 681 mmHg 65%
08:00 +17°C° 0 mm 7 mps 681 mmHg 64%
09:00 +18°C° 0 mm 7 mps 682 mmHg 58%
10:00 +20°C° 0 mm 7 mps 682 mmHg 53%
11:00 +22°C° 0 mm 7 mps 682 mmHg 48%
12:00 +24°C° 0 mm 7 mps 682 mmHg 43%
13:00 +26°C° 0 mm 7 mps 682 mmHg 38%
14:00 +28°C° 0 mm 6 mps 681 mmHg 33%
15:00 +28°C° 0 mm 6 mps 681 mmHg 33%
16:00 +28°C° 0 mm 6 mps 681 mmHg 32%
17:00 +28°C° 0 mm 6 mps 681 mmHg 32%
18:00 +26°C° 0 mm 5 mps 681 mmHg 37%
19:00 +23°C° 0 mm 4 mps 681 mmHg 42%
20:00 +21°C° 0 mm 3 mps 682 mmHg 47%
21:00 +20°C° 0 mm 3 mps 682 mmHg 50%
22:00 +18°C° 0 mm 3 mps 682 mmHg 54%
23:00 +17°C° 0 mm 3 mps 682 mmHg 57%

23 September, Wednesday

Time Temperature Precipitation Wind Pressure Humidity
00:00 +17°C° 0 mm 3 mps 681 mmHg 60%
01:00 +16°C° 0 mm 3 mps 681 mmHg 63%
02:00 +14°C° 0 mm 3 mps 681 mmHg 67%
03:00 +13°C° 0 mm 3 mps 680 mmHg 69%
04:00 +13°C° 0 mm 3 mps 680 mmHg 71%
05:00 +12°C° 0 mm 3 mps 680 mmHg 73%
06:00 +14°C° 0 mm 4 mps 680 mmHg 68%
07:00 +15°C° 0 mm 4 mps 681 mmHg 63%
08:00 +17°C° 0 mm 4 mps 682 mmHg 58%
09:00 +20°C° 0 mm 4 mps 682 mmHg 48%
10:00 +23°C° 0 mm 5 mps 682 mmHg 39%
11:00 +28°C° 0 mm 5 mps 682 mmHg 29%
12:00 +29°C° 0 mm 4 mps 681 mmHg 25%
13:00 +32°C° 0 mm 4 mps 681 mmHg 21%
14:00 +34°C° 0 mm 4 mps 680 mmHg 17%
15:00 +34°C° 0 mm 3 mps 679 mmHg 17%
16:00 +34°C° 0 mm 2 mps 679 mmHg 17%
17:00 +34°C° 0 mm 2 mps 679 mmHg 17%
18:00 +31°C° 0 mm 2 mps 678 mmHg 20%
19:00 +28°C° 0 mm 2 mps 678 mmHg 23%
20:00 +25°C° 0 mm 2 mps 678 mmHg 27%
21:00 +24°C° 0 mm 2 mps 678 mmHg 29%
22:00 +23°C° 0 mm 2 mps 678 mmHg 32%
23:00 +21°C° 0 mm 2 mps 678 mmHg 34%

24 September, Thursday

Time Temperature Precipitation Wind Pressure Humidity
00:00 +20°C° 0 mm 2 mps 678 mmHg 37%
01:00 +21°C° 0 mm 1 mps 677 mmHg 39%
02:00 +20°C° 0 mm 1 mps 677 mmHg 41%
03:00 +19°C° 0 mm 1 mps 677 mmHg 43%
04:00 +19°C° 0 mm 1 mps 677 mmHg 44%
05:00 +19°C° 0 mm 1 mps 677 mmHg 46%
06:00 +20°C° 0 mm 1 mps 678 mmHg 42%
07:00 +21°C° 0 mm 2 mps 678 mmHg 38%
08:00 +24°C° 0 mm 2 mps 679 mmHg 35%
09:00 +27°C° 0 mm 2 mps 679 mmHg 29%
10:00 +30°C° 0 mm 3 mps 679 mmHg 24%
11:00 +34°C° 0 mm 3 mps 680 mmHg 18%
12:00 +36°C° 0 mm 3 mps 679 mmHg 16%
13:00 +38°C° 0 mm 2 mps 678 mmHg 14%
14:00 +39°C° 0 mm 2 mps 678 mmHg 12%
15:00 +39°C° 0 mm 2 mps 677 mmHg 12%
16:00 +38°C° 0 mm 2 mps 677 mmHg 13%
17:00 +38°C° 0 mm 2 mps 676 mmHg 13%
18:00 +34°C° 0 mm 1 mps 676 mmHg 17%
19:00 +31°C° 0 mm 1 mps 676 mmHg 20%
20:00 +26°C° 0 mm 0 mps 675 mmHg 23%
21:00 +26°C° 0 mm 0 mps 675 mmHg 24%
22:00 +25°C° 0 mm 0 mps 675 mmHg 26%
23:00 +24°C° 0 mm 0 mps 675 mmHg 27%
Show more